,,PA_Meas_PMT16A,,PR_Meas_QMR101_102,,RH_Meas_QMH101,,SR_Meas_QMS101,,TA_Meas_QMH101,,GenWind,,GenWind,
time,status,PA,status,PR,status,RH,status,SR,status,TA,status,DirAvg,status,SpdAvg,
2016-08-30, 00:18:04,VALID,917.737,VALID,0,VALID,95.8111,VALID,38.7863,VALID,23.1331,VALID,7,VALID,0,
2016-08-30, 00:19:04,VALID,916.146,VALID,0,VALID,97.5492,VALID,37.497,VALID,23.1136,VALID,23,VALID,0,
2016-08-30, 00:20:04,INVALID,918.642,VALID,0,VALID,94.6905,VALID,37.497,VALID,23.1136,VALID,24,VALID,0.713281,
2016-08-30, 00:21:04,VALID,916.9,VALID,0,VALID,97.5797,VALID,38.2491,VALID,23.0551,VALID,18,VALID,0.0417969,
2016-08-30, 00:22:04,VALID,915.464,VALID,0,VALID,101.94,VALID,39.216,VALID,22.9965,VALID,43,VALID,0,
2016-08-30, 00:23:04,VALID,916.192,VALID,0,VALID,103.099,VALID,40.9351,VALID,22.938,VALID,16,VALID,1.31758,
2016-08-30, 00:24:04,VALID,916.217,VALID,0,VALID,103.938,VALID,42.6541,VALID,22.8794,VALID,16,VALID,1.21523,
2016-08-30, 00:25:04,VALID,916.767,VALID,0,VALID,104,VALID,44.1583,VALID,22.8014,VALID,10,VALID,0,
2016-08-30, 00:26:04,VALID,916.073,VALID,0,VALID,104,VALID,44.1583,VALID,22.7836,VALID,26,VALID,0,
2016-08-30, 00:27:04,VALID,914.874,VALID,0,VALID,103.252,VALID,43.4062,VALID,22.7428,VALID,23,VALID,0,
2016-08-30, 00:28:04,VALID,915.766,VALID,0,VALID,104,VALID,41.5797,VALID,22.6843,VALID,4,VALID,0,
2016-08-30, 00:31:05,VALID,917.886,VALID,0,VALID,104,VALID,34.4886,VALID,22.686,VALID,20,VALID,0.01875,
2016-08-30, 00:33:04,VALID,916.272,VALID,0,VALID,104,VALID,29.6538,VALID,22.6843,VALID,18,VALID,0,
2016-08-30, 00:34:04,VALID,916.204,VALID,0,VALID,104,VALID,27.9347,VALID,22.686,VALID,18,VALID,0,
2016-08-30, 00:36:04,VALID,914.63,VALID,0,VALID,104,VALID,24.8189,VALID,22.7055,VALID,18,VALID,0,
2016-08-30, 00:37:04,VALID,915.902,VALID,0,VALID,104,VALID,23.0998,VALID,22.725,VALID,18,VALID,0,
2016-08-30, 14:22:04,VALID,918.618,VALID,0,INVALID,116.173,VALID,82.1925,VALID,20.1529,VALID,307,VALID,0,
2016-08-30, 14:25:04,VALID,918.639,VALID,0,INVALID,116.417,VALID,98.7384,VALID,20.1513,VALID,359,VALID,0,
2016-08-30, 14:28:04,VALID,918.67,VALID,0,INVALID,116.539,VALID,116.251,VALID,20.3284,VALID,296,VALID,0,
2016-08-30, 14:29:04,VALID,918.645,VALID,0,INVALID,116.646,VALID,116.574,VALID,20.3479,VALID,296,VALID,0,
2016-08-30, 14:31:04,VALID,918.657,VALID,0,INVALID,116.943,VALID,107.441,VALID,20.4259,VALID,296,VALID,0,
2016-08-30, 15:03:04,VALID,918.976,VALID,0,INVALID,117.484,VALID,119.904,VALID,20.9917,VALID,296,VALID,0,
2016-08-30, 15:04:04,VALID,918.979,VALID,0,INVALID,117.256,VALID,118.615,VALID,20.9917,VALID,296,VALID,0,
2016-08-30, 15:05:04,VALID,918.969,VALID,0,INVALID,116.981,VALID,116.359,VALID,20.9917,VALID,296,VALID,0,
2016-08-30, 15:06:04,VALID,918.951,VALID,0,INVALID,116.425,VALID,119.367,VALID,20.9511,VALID,296,VALID,0,
2016-08-30, 15:07:04,VALID,918.939,VALID,0,INVALID,116.044,VALID,126.458,VALID,20.9722,VALID,296,VALID,0,
2016-08-30, 15:08:04,VALID,918.927,VALID,0,INVALID,116.036,VALID,138.707,VALID,21.0502,VALID,296,VALID,0,
2016-08-30, 15:09:04,VALID,918.936,VALID,0,INVALID,115.891,VALID,151.707,VALID,21.1087,VALID,296,VALID,0,
2016-08-30, 15:10:04,VALID,918.885,VALID,0,INVALID,115.723,VALID,159.765,VALID,21.1461,VALID,296,VALID,0,
2016-08-30, 15:11:04,VALID,918.902,VALID,0.2,INVALID,115.289,VALID,171.584,VALID,21.1657,VALID,296,VALID,0,
2016-08-30, 15:12:04,VALID,918.896,VALID,0,INVALID,115.327,VALID,184.047,VALID,21.1852,VALID,296,VALID,0,
2016-08-30, 15:13:04,VALID,918.875,VALID,0,INVALID,115.777,VALID,224.337,VALID,21.2453,VALID,296,VALID,0,
2016-08-30, 15:14:04,VALID,918.864,VALID,0,INVALID,115.868,VALID,238.197,VALID,21.2648,VALID,296,VALID,0,
2016-08-30, 15:15:04,VALID,918.879,VALID,0,INVALID,115.358,VALID,273.115,VALID,21.2437,VALID,296,VALID,0,
2016-08-30, 15:16:04,VALID,918.901,VALID,0,INVALID,115.297,VALID,246.363,VALID,21.3022,VALID,295,VALID,0,
2016-08-30, 15:17:04,VALID,918.924,VALID,0,INVALID,114.87,VALID,230.784,VALID,21.3608,VALID,296,VALID,0,
2016-08-30, 15:18:04,VALID,918.908,VALID,0,INVALID,114.877,VALID,209.08,VALID,21.4388,VALID,296,VALID,0,
2016-08-30, 15:19:04,VALID,918.97,VALID,0,INVALID,114.466,VALID,212.196,VALID,21.5559,VALID,296,VALID,0,
2016-08-30, 15:20:04,VALID,918.949,VALID,0,INVALID,113.909,VALID,209.08,VALID,21.6339,VALID,297,VALID,0,
2016-08-30, 15:21:04,VALID,918.955,VALID,0,INVALID,112.308,VALID,228.957,VALID,21.6729,VALID,18,VALID,0,
2016-08-30, 15:22:04,VALID,918.977,VALID,0,INVALID,110.448,VALID,236.693,VALID,21.7315,VALID,18,VALID,0,
2016-08-30, 15:23:04,VALID,918.972,VALID,0,VALID,97.7017,VALID,221.544,VALID,21.6339,VALID,48,VALID,0,
2016-08-30, 15:24:04,VALID,918.975,VALID,0,VALID,104,VALID,217.031,VALID,21.5949,VALID,48,VALID,0,
2016-08-30, 15:25:04,VALID,918.959,VALID,0,INVALID,112.705,VALID,218.106,VALID,21.5542,VALID,48,VALID,0,
2016-08-30, 15:26:04,VALID,918.938,VALID,0,INVALID,112.171,VALID,214.56,VALID,21.5965,VALID,36,VALID,0,
2016-08-30, 15:27:04,VALID,918.953,VALID,0,INVALID,112.659,VALID,206.932,VALID,21.4957,VALID,14,VALID,0,
2016-08-30, 15:28:04,VALID,918.953,VALID,0,INVALID,111.005,VALID,211.874,VALID,21.5152,VALID,341,VALID,0,
2016-08-30, 15:29:04,VALID,918.931,VALID,0,VALID,104,VALID,214.882,VALID,21.4778,VALID,340,VALID,0,
2016-08-30, 15:30:04,VALID,918.944,VALID,0,INVALID,112.949,VALID,216.494,VALID,21.5152,VALID,20,VALID,0,
2016-08-30, 15:31:04,VALID,918.932,VALID,0,INVALID,112.064,VALID,220.792,VALID,21.5737,VALID,331,VALID,0,
2016-08-30, 15:32:04,VALID,918.919,VALID,0,INVALID,112.354,VALID,231.321,VALID,21.5737,VALID,329,VALID,0,
2016-08-30, 15:33:04,VALID,918.928,VALID,0,INVALID,113.665,VALID,262.156,VALID,21.6729,VALID,329,VALID,0,
2016-08-30, 15:34:04,VALID,918.943,VALID,0,INVALID,114.13,VALID,280.529,VALID,21.829,VALID,329,VALID,0,
2016-08-30, 15:35:04,VALID,918.948,VALID,0,INVALID,113.391,VALID,361.969,VALID,22.0047,VALID,329,VALID,0,
2016-08-30, 15:36:04,VALID,918.962,VALID,0,INVALID,110.433,VALID,317.274,VALID,22.2583,VALID,335,VALID,0,
2016-08-30, 15:37:04,VALID,918.983,VALID,0,VALID,93.0057,VALID,435.244,VALID,22.434,VALID,4,VALID,0,
2016-08-30, 15:38:04,VALID,918.99,VALID,0,VALID,88.7137,VALID,439.649,VALID,22.5511,VALID,270,VALID,0,
2016-08-30, 15:39:04,VALID,919.014,VALID,0,VALID,86.6096,VALID,410.962,VALID,22.6487,VALID,264,VALID,0,
2016-08-30, 15:40:04,VALID,919.026,VALID,0,VALID,86.6554,VALID,422.996,VALID,22.6877,VALID,264,VALID,0,
2016-08-30, 15:41:04,VALID,919.039,VALID,0,VALID,89.9716,VALID,410.21,VALID,22.6487,VALID,311,VALID,0,
2016-08-30, 15:42:04,VALID,919.049,VALID,0,VALID,90.9931,VALID,398.929,VALID,22.7445,VALID,56,VALID,0,
2016-08-30, 15:43:04,VALID,919.029,VALID,0,VALID,90.7187,VALID,288.587,VALID,22.8226,VALID,32,VALID,0,
2016-08-30, 15:44:04,VALID,919.05,VALID,0,VALID,85.6491,VALID,304.166,VALID,22.8421,VALID,19,VALID,0,
2016-08-30, 15:45:04,VALID,919.06,VALID,0,VALID,85.55,VALID,358.961,VALID,22.9592,VALID,9,VALID,0,
2016-08-30, 15:46:04,VALID,919.029,VALID,0,VALID,84.4217,VALID,408.706,VALID,22.9805,INVALID,360,VALID,0,
2016-08-30, 15:47:04,VALID,919.026,VALID,0,VALID,86.6554,VALID,442.12,VALID,22.8812,VALID,22,VALID,0,
2016-08-30, 15:48:04,VALID,919.026,VALID,0,VALID,87.6235,VALID,482.196,VALID,22.9202,VALID,360,VALID,0,
2016-08-30, 15:49:04,VALID,919.008,VALID,0,VALID,85.024,VALID,478.65,VALID,22.9397,VALID,333,VALID,0,
2016-08-30, 15:50:04,VALID,918.972,VALID,0,VALID,84.5284,VALID,483.7,VALID,22.8812,VALID,330,VALID,0,
2016-08-30, 15:51:04,VALID,918.964,VALID,0,VALID,87.0365,VALID,453.294,VALID,22.8616,VALID,330,VALID,0,
2016-08-30, 15:52:04,VALID,918.978,VALID,0,VALID,86.0379,VALID,467.691,VALID,23.0551,VALID,327,VALID,0,
2016-08-30, 15:53:04,VALID,918.969,VALID,0,VALID,83.9033,VALID,478.758,VALID,23.1917,VALID,318,VALID,0,
2016-08-30, 15:54:04,VALID,918.903,VALID,0,VALID,85.6338,VALID,484.774,VALID,23.2875,VALID,317,VALID,0,
2016-08-30, 15:55:04,VALID,918.888,VALID,0,VALID,84.4065,VALID,501.75,VALID,23.6211,VALID,326,VALID,0,
2016-08-30, 15:56:04,VALID,918.865,VALID,0,VALID,79.9239,VALID,508.412,VALID,23.8554,VALID,26,VALID,0,
2016-08-30, 15:57:04,VALID,918.833,VALID,0,VALID,79.84,VALID,467.906,VALID,24.0896,VALID,343,VALID,0,
2016-08-30, 15:58:04,VALID,918.801,VALID,0,VALID,80.1297,VALID,438.038,VALID,23.992,VALID,275,VALID,0,
2016-08-30, 15:59:04,VALID,918.806,VALID,0,VALID,79.9239,VALID,497.99,VALID,23.8749,VALID,314,VALID,0,
2016-08-30, 16:00:04,VALID,918.778,VALID,0,VALID,79.0015,VALID,489.609,VALID,23.8358,VALID,357,VALID,1.09219,
2016-08-30, 16:01:04,VALID,918.782,VALID,0,VALID,78.5898,VALID,485.849,VALID,23.7968,VALID,271,VALID,0.516406,
2016-08-30, 16:02:04,VALID,918.755,VALID,0,VALID,77.3167,VALID,495.626,VALID,23.6779,VALID,265,VALID,0,
2016-08-30, 16:03:04,VALID,918.763,VALID,0,VALID,77.6826,VALID,487.031,VALID,23.5608,VALID,289,VALID,0,
2016-08-30, 16:04:04,VALID,918.752,VALID,0,VALID,78.1248,VALID,471.452,VALID,23.5022,VALID,289,VALID,0,
2016-08-30, 16:05:04,VALID,918.72,VALID,0,VALID,78.7194,VALID,483.378,VALID,23.5998,VALID,280,VALID,0,
2016-08-30, 16:06:04,VALID,918.753,VALID,0,VALID,77.1109,VALID,473.601,VALID,23.6193,VALID,268,VALID,0,
2016-08-30, 16:07:04,VALID,918.785,VALID,0,VALID,77.0194,VALID,482.518,VALID,23.5608,VALID,268,VALID,0,
2016-08-30, 16:08:04,VALID,918.788,VALID,0,VALID,77.3853,VALID,487.246,VALID,23.5608,VALID,263,VALID,0,
2016-08-30, 16:09:04,VALID,918.805,VALID,0,VALID,77.7131,VALID,509.271,VALID,23.4809,VALID,263,VALID,0,
2016-08-30, 16:10:04,VALID,918.805,VALID,0,VALID,78.8719,VALID,492.51,VALID,23.5785,VALID,353,VALID,0,
2016-08-30, 16:11:04,VALID,918.817,VALID,0,VALID,79.6571,VALID,505.618,VALID,23.7542,VALID,30,VALID,0,
2016-08-30, 16:12:04,VALID,918.791,VALID,0,VALID,78.5745,VALID,504.544,VALID,24.0488,VALID,47,VALID,0,
2016-08-30, 16:13:04,VALID,918.768,VALID,0,VALID,76.2799,VALID,508.089,VALID,24.2812,VALID,319,VALID,0.00898437,
2016-08-30, 16:14:04,VALID,918.745,VALID,0,VALID,75.731,VALID,509.164,VALID,24.2031,VALID,319,VALID,0.00742187,
2016-08-30, 16:15:04,VALID,918.767,VALID,0,VALID,76.0969,VALID,512.709,VALID,24.1055,VALID,307,VALID,0,
2016-08-30, 16:16:04,VALID,918.763,VALID,0,VALID,77.0804,VALID,503.684,VALID,24.2031,VALID,4,VALID,0,
2016-08-30, 16:17:04,VALID,918.744,VALID,0,VALID,77.0041,VALID,512.709,VALID,24.244,VALID,24,VALID,0.00390625,
2016-08-30, 16:18:04,VALID,918.743,VALID,0,VALID,79.2302,VALID,497.13,VALID,24.2226,VALID,24,VALID,0.432422,
2016-08-30, 16:19:04,VALID,918.768,VALID,0,VALID,76.7373,VALID,509.164,VALID,24.1836,VALID,57,VALID,0.273828,
2016-08-30, 16:20:04,VALID,918.763,VALID,0,VALID,77.3853,VALID,506.692,VALID,24.0665,VALID,36,VALID,0,
2016-08-30, 16:21:04,VALID,918.799,VALID,0,VALID,77.7055,VALID,514.536,VALID,24.0665,VALID,41,VALID,0.0015625,
2016-08-30, 16:22:04,VALID,918.809,VALID,0,VALID,78.262,VALID,520.445,VALID,24.125,VALID,58,VALID,0,
2016-08-30, 16:23:04,VALID,918.819,VALID,0,VALID,78.4297,VALID,527.536,VALID,24.2617,VALID,52,VALID,0,
2016-08-30, 16:24:04,VALID,918.844,VALID,0,VALID,74.3436,VALID,537.85,VALID,24.3788,VALID,53,VALID,0,
2016-08-30, 16:25:04,VALID,918.838,VALID,0,VALID,74.3512,VALID,550.206,VALID,24.3769,VALID,52,VALID,0,
2016-08-30, 16:26:04,VALID,918.888,VALID,0,VALID,75.3727,VALID,551.495,VALID,24.4178,VALID,52,VALID,0,
2016-08-30, 16:27:04,VALID,918.902,VALID,0,VALID,74.2902,VALID,536.454,VALID,24.6912,VALID,52,VALID,0,
2016-08-30, 16:28:04,VALID,918.939,VALID,0,VALID,72.8646,VALID,552.57,VALID,24.9431,VALID,84,VALID,0,
2016-08-30, 16:29:04,VALID,918.974,VALID,0,VALID,71.9117,VALID,569.653,VALID,25.0817,VALID,83,VALID,0,
2016-08-30, 16:30:04,VALID,918.952,VALID,0,VALID,70.9435,VALID,569.868,VALID,25.0798,VALID,156,VALID,0,
2016-08-30, 16:31:04,VALID,918.976,VALID,0,VALID,72.3691,VALID,570.942,VALID,24.9626,VALID,231,VALID,0,
2016-08-30, 16:32:04,VALID,918.975,VALID,0,VALID,73.4745,VALID,572.124,VALID,25.0231,VALID,213,VALID,0,
2016-08-30, 16:33:04,VALID,918.981,VALID,0,VALID,73.4059,VALID,549.884,VALID,25.0212,VALID,75,VALID,0.150391,
2016-08-30, 16:34:04,VALID,919.002,VALID,0,VALID,74.4732,VALID,504.436,VALID,25.0017,VALID,116,VALID,0.00429688,
2016-08-30, 16:35:04,VALID,919.018,VALID,0,VALID,72.8875,VALID,389.367,VALID,24.9431,VALID,123,VALID,0.0941406,
2016-08-30, 16:36:04,VALID,919.042,VALID,0,VALID,73.8328,VALID,596.513,VALID,24.8845,VALID,77,VALID,0,
2016-08-30, 16:37:04,VALID,919.028,VALID,0,VALID,77.0117,VALID,597.695,VALID,24.9821,VALID,69,VALID,0.588281,
2016-08-30, 16:38:04,VALID,919.03,VALID,0,VALID,74.0996,VALID,606.613,VALID,25.0036,VALID,97,VALID,0.453906,
2016-08-30, 16:39:04,VALID,918.997,VALID,0,VALID,75.2355,VALID,602.637,VALID,24.9645,VALID,66,VALID,0,
2016-08-30, 16:40:04,VALID,919.039,VALID,0,VALID,75.022,VALID,609.514,VALID,25.0036,VALID,58,VALID,0,
2016-08-30, 16:41:04,VALID,919.002,VALID,0,VALID,77.0651,VALID,609.621,VALID,25.1188,VALID,40,VALID,1.15195,
2016-08-30, 16:42:04,VALID,919.044,VALID,0,VALID,69.5865,VALID,586.414,VALID,25.2183,VALID,23,VALID,0.220703,
2016-08-30, 16:43:04,VALID,919.005,VALID,0,VALID,71.5305,VALID,518.941,VALID,25.2164,VALID,31,VALID,0,
2016-08-30, 16:44:04,VALID,918.993,VALID,0,VALID,70.8139,VALID,445.988,VALID,25.2945,VALID,13,VALID,0.441016,
2016-08-30, 16:45:04,VALID,919.019,VALID,0,VALID,71.1112,VALID,343.704,VALID,25.2945,VALID,360,VALID,0.286719,
2016-08-30, 16:46:04,VALID,919.044,VALID,0,VALID,69.2359,VALID,389.367,VALID,25.2164,VALID,327,VALID,1.26875,
2016-08-30, 16:47:04,VALID,919.013,VALID,0,VALID,70.0439,VALID,402.904,VALID,24.9431,VALID,327,VALID,0,
2016-08-30, 16:48:04,VALID,919.009,VALID,0,VALID,71.6982,VALID,419.88,VALID,24.6893,VALID,327,VALID,0,
2016-08-30, 16:49:04,VALID,919.047,VALID,0,VALID,74.0539,VALID,587.918,VALID,24.7088,VALID,351,VALID,0.0714844,
2016-08-30, 16:50:04,VALID,919.063,VALID,0,VALID,67.1775,VALID,658.077,VALID,24.7869,VALID,342,VALID,0.285547,
2016-08-30, 16:51:04,VALID,919.084,VALID,0,VALID,67.5282,VALID,665.813,VALID,24.8455,VALID,298,VALID,0.341406,
2016-08-30, 16:52:04,VALID,919.082,VALID,0,VALID,67.856,VALID,725.013,VALID,24.6484,VALID,271,VALID,0,
2016-08-30, 16:53:04,VALID,919.124,VALID,0,VALID,71.4771,VALID,735.757,VALID,24.6874,VALID,286,VALID,0.00429688,
2016-08-30, 16:54:04,VALID,919.131,VALID,0,VALID,71.1036,VALID,649.052,VALID,24.6502,VALID,289,VALID,0.550391,
2016-08-30, 16:55:04,VALID,919.127,VALID,0,VALID,72.7121,VALID,751.014,VALID,24.6502,VALID,245,VALID,0,
2016-08-30, 16:56:04,VALID,919.134,VALID,0,VALID,75.609,VALID,766.7,VALID,24.9626,VALID,285,VALID,0,
2016-08-30, 16:57:04,VALID,919.153,VALID,0,VALID,73.4974,VALID,764.444,VALID,25.3922,VALID,31,VALID,1.16406,
2016-08-30, 16:58:04,VALID,919.145,VALID,0,VALID,71.683,VALID,761.328,VALID,25.7437,VALID,24,VALID,1.10742,
2016-08-30, 16:59:04,VALID,919.178,VALID,0,VALID,68.7937,VALID,765.518,VALID,25.9585,VALID,46,VALID,1.15391,
2016-08-30, 17:00:04,VALID,919.16,VALID,0,VALID,67.8408,VALID,776.155,VALID,26.0151,VALID,64,VALID,0.205078,
2016-08-30, 17:01:04,VALID,919.147,VALID,0,VALID,67.7264,VALID,778.626,VALID,26.1713,VALID,57,VALID,1.23828,
2016-08-30, 17:02:04,VALID,919.185,VALID,0,VALID,66.7278,VALID,783.246,VALID,26.269,VALID,28,VALID,0.046875,
2016-08-30, 17:03:04,VALID,919.151,VALID,0,VALID,67.1547,VALID,793.883,VALID,26.271,VALID,23,VALID,0,
2016-08-30, 17:04:04,VALID,919.178,VALID,0,VALID,64.2654,VALID,778.519,VALID,26.3666,VALID,18,VALID,1.64258,
2016-08-30, 17:05:04,VALID,919.056,VALID,0,VALID,63.1905,VALID,775.51,VALID,26.2299,VALID,38,VALID,3.76797,
2016-08-30, 17:06:04,VALID,919.161,VALID,0,VALID,63.7165,VALID,741.129,VALID,26.1323,VALID,24,VALID,1.74922,
2016-08-30, 17:07:04,VALID,919.179,VALID,0,VALID,65.9578,VALID,741.237,VALID,26.3471,VALID,15,VALID,0.686719,
2016-08-30, 17:08:04,VALID,919.18,VALID,0,VALID,62.9847,VALID,742.203,VALID,26.7182,VALID,38,VALID,0,
2016-08-30, 17:09:04,VALID,919.226,VALID,0,VALID,61.5133,VALID,744.03,VALID,26.894,VALID,80,VALID,0,
2016-08-30, 17:10:04,VALID,919.188,VALID,0,VALID,57.9913,VALID,739.732,VALID,27.1284,VALID,297,VALID,0.00234375,
2016-08-30, 17:11:04,VALID,919.191,VALID,0,VALID,57.8465,VALID,752.518,VALID,27.0503,VALID,276,VALID,0,
2016-08-30, 17:12:04,VALID,919.187,VALID,0,VALID,61.3685,VALID,759.931,VALID,27.2435,VALID,279,VALID,0,
2016-08-30, 17:13:04,VALID,919.146,VALID,0,VALID,59.699,VALID,761.65,VALID,27.4626,VALID,270,VALID,0,
2016-08-30, 17:14:04,VALID,919.161,VALID,0,VALID,60.9645,VALID,740.699,VALID,27.48,VALID,290,VALID,0,
2016-08-30, 17:15:04,VALID,919.14,VALID,0,VALID,60.9492,VALID,776.907,VALID,27.5017,VALID,12,VALID,0.851563,
2016-08-30, 17:16:04,VALID,919.149,VALID,0,VALID,59.3483,VALID,667.854,VALID,27.4821,VALID,352,VALID,0.711719,
2016-08-30, 17:17:04,VALID,919.108,VALID,0,VALID,59.76,VALID,697.83,VALID,27.3238,VALID,314,VALID,0.276172,
2016-08-30, 17:18:04,VALID,919.123,VALID,0,VALID,61.5057,VALID,513.998,VALID,27.1675,VALID,6,VALID,0.691406,
2016-08-30, 17:19:04,VALID,919.117,VALID,0,VALID,61.6658,VALID,356.597,VALID,26.9331,VALID,291,VALID,0.178125,
2016-08-30, 17:20:04,VALID,919.093,VALID,0,VALID,59.3864,VALID,344.134,VALID,26.6421,VALID,297,VALID,0.360156,
2016-08-30, 17:21:04,VALID,919.071,VALID,0,VALID,60.6443,VALID,342.845,VALID,26.1733,VALID,260,VALID,1.01211,
2016-08-30, 17:22:04,VALID,919.096,VALID,0,VALID,61.7573,VALID,371.209,VALID,25.7026,VALID,242,VALID,0.735156,
2016-08-30, 17:23:04,VALID,919.084,VALID,0,VALID,63.7699,VALID,523.238,VALID,25.566,VALID,296,VALID,0.194141,
2016-08-30, 17:24:04,VALID,919.079,VALID,0,VALID,65.4089,VALID,700.301,VALID,25.7026,VALID,351,VALID,0.347266,
2016-08-30, 17:25:04,VALID,919.047,VALID,0,VALID,66.156,VALID,828.049,VALID,26.0346,VALID,14,VALID,0.754687,
2016-08-30, 17:26:04,VALID,919.053,VALID,0,VALID,64.6618,VALID,779.271,VALID,26.3276,VALID,19,VALID,0.269922,
2016-08-30, 17:27:04,VALID,919.037,VALID,0,VALID,63.9452,VALID,818.702,VALID,26.6226,VALID,20,VALID,1.04922,
2016-08-30, 17:28:04,VALID,918.994,VALID,0,VALID,58.4411,VALID,801.726,VALID,26.8745,VALID,29,VALID,0.408984,
2016-08-30, 17:29:04,VALID,918.997,VALID,0,VALID,58.0294,VALID,837.934,VALID,26.7377,VALID,271,VALID,0.997266,
2016-08-30, 17:30:04,VALID,919.008,VALID,0,VALID,59.394,VALID,849.752,VALID,26.6401,VALID,245,VALID,0.046875,
2016-08-30, 17:31:04,VALID,918.971,VALID,0,VALID,62.2528,VALID,869.199,VALID,26.8159,VALID,2,VALID,0,
2016-08-30, 17:32:04,VALID,918.964,VALID,0,VALID,60.6138,VALID,887.894,VALID,27.2651,VALID,10,VALID,0,
2016-08-30, 17:33:04,VALID,918.947,VALID,0,VALID,57.3738,VALID,906.051,VALID,27.5973,VALID,24,VALID,0.0429688,
2016-08-30, 17:34:04,VALID,918.934,VALID,0,VALID,56.6572,VALID,846.314,VALID,27.9273,VALID,328,VALID,0,
2016-08-30, 17:35:04,VALID,918.926,VALID,0,VALID,51.6563,VALID,805.701,VALID,27.9881,VALID,322,VALID,0.202734,
2016-08-30, 17:36:04,VALID,918.914,VALID,0,VALID,53.6155,VALID,602.96,VALID,27.949,VALID,344,VALID,0,
2016-08-30, 17:37:04,VALID,918.895,VALID,0,VALID,54.9801,VALID,509.164,VALID,28.1053,VALID,322,VALID,0,
2016-08-30, 17:38:04,VALID,918.866,VALID,0,VALID,54.3245,VALID,576.637,VALID,28.0445,VALID,312,VALID,0,
2016-08-30, 17:39:04,VALID,918.853,VALID,0,VALID,54.3092,VALID,606.505,VALID,27.8492,VALID,360,VALID,0,
2016-08-30, 17:40:04,VALID,918.806,VALID,0,VALID,54.8886,VALID,491.436,VALID,27.8882,VALID,327,VALID,0,
2016-08-30, 17:41:04,VALID,918.773,VALID,0,VALID,56.2151,VALID,484.667,VALID,27.7905,VALID,297,VALID,0,
2016-08-30, 17:42:04,VALID,918.762,VALID,0,VALID,56.1312,VALID,523.561,VALID,27.695,VALID,316,VALID,0,
2016-08-30, 17:43:04,VALID,918.751,VALID,0,VALID,54.9115,VALID,492.08,VALID,27.517,VALID,254,VALID,0.00195313,
2016-08-30, 17:44:04,VALID,918.732,VALID,0,VALID,58.2353,VALID,513.354,VALID,27.2631,VALID,254,VALID,0,
2016-08-30, 17:45:04,VALID,918.745,VALID,0,VALID,58.1133,VALID,562.454,VALID,26.9505,VALID,251,VALID,0,
2016-08-30, 17:46:04,VALID,918.709,VALID,0,VALID,59.9353,VALID,530.222,VALID,26.7963,VALID,243,VALID,0,
2016-08-30, 17:47:04,VALID,918.669,VALID,0,VALID,57.2366,VALID,614.456,VALID,26.599,VALID,268,VALID,0,
2016-08-30, 17:48:04,VALID,918.653,VALID,0,VALID,58.4106,VALID,778.948,VALID,26.5209,VALID,272,VALID,0,
2016-08-30, 17:49:04,VALID,918.646,VALID,0,VALID,60.8882,VALID,849.752,VALID,26.7552,VALID,272,VALID,0,
2016-08-30, 17:50:04,VALID,918.628,VALID,0,VALID,59.3864,VALID,746.071,VALID,27.0677,VALID,272,VALID,0,
2016-08-30, 17:51:04,VALID,918.608,VALID,0,VALID,54.8352,VALID,878.761,VALID,27.1849,VALID,278,VALID,0.380078,
2016-08-30, 17:52:04,VALID,918.607,VALID,0,VALID,58.4411,VALID,820.85,VALID,27.0091,VALID,292,VALID,0,
2016-08-30, 17:53:04,VALID,918.589,VALID,0,VALID,58.2581,VALID,755.634,VALID,27.1459,VALID,258,VALID,0,
2016-08-30, 17:54:04,VALID,918.612,VALID,0,VALID,55.2088,VALID,875.86,VALID,27.3412,VALID,315,VALID,0,
2016-08-30, 17:55:04,VALID,918.607,VALID,0,VALID,56.3904,VALID,862.86,VALID,27.4584,VALID,13,VALID,0,
2016-08-30, 17:56:04,VALID,918.603,VALID,0,VALID,57.046,VALID,854.157,VALID,27.4389,VALID,328,VALID,0,
2016-08-30, 17:57:04,VALID,918.56,VALID,0,VALID,56.3752,VALID,843.198,VALID,27.517,VALID,341,VALID,0,
2016-08-30, 17:58:04,VALID,918.579,VALID,0,VALID,58.0752,VALID,831.917,VALID,27.7124,VALID,340,VALID,0,
2016-08-30, 17:59:04,VALID,918.583,VALID,0,VALID,55.7882,VALID,830.735,VALID,28.0858,VALID,28,VALID,0.0855469,
2016-08-30, 18:00:04,VALID,918.573,VALID,0,VALID,55.5823,VALID,823.214,VALID,28.2616,VALID,10,VALID,2.74414,
2016-08-30, 18:01:04,VALID,918.526,VALID,0,VALID,55.6204,VALID,813.544,VALID,28.1032,VALID,34,VALID,1.93203,
2016-08-30, 18:02:04,VALID,918.568,VALID,0,VALID,56.3828,VALID,777.337,VALID,27.9273,VALID,35,VALID,0.853125,
2016-08-30, 18:03:04,VALID,918.562,VALID,0,VALID,55.6509,VALID,759.716,VALID,28.0055,VALID,321,VALID,0.452344,
2016-08-30, 18:04:04,VALID,918.551,VALID,0,VALID,54.942,VALID,769.064,VALID,27.7515,VALID,322,VALID,1.21094,
2016-08-30, 18:05:04,VALID,918.536,VALID,0,VALID,55.9254,VALID,763.369,VALID,27.4194,VALID,333,VALID,0,
2016-08-30, 18:06:04,VALID,918.508,VALID,0,VALID,56.4285,VALID,777.444,VALID,27.3042,VALID,181,VALID,0,
2016-08-30, 18:07:04,VALID,918.497,VALID,0,VALID,58.9061,VALID,773.361,VALID,27.2261,VALID,180,VALID,0,
2016-08-30, 18:08:04,VALID,918.494,VALID,0,VALID,59.638,VALID,776.585,VALID,27.4389,VALID,44,VALID,0.402344,
2016-08-30, 18:09:04,VALID,918.493,VALID,0,VALID,58.7003,VALID,770.783,VALID,27.8122,VALID,39,VALID,1.19297,
2016-08-30, 18:10:04,VALID,918.463,VALID,0,VALID,59.455,VALID,755.204,VALID,28.0858,VALID,34,VALID,0.388281,
2016-08-30, 18:11:04,VALID,918.448,VALID,0,VALID,56.0702,VALID,785.073,VALID,28.279,VALID,23,VALID,0.0210938,
2016-08-30, 18:12:04,VALID,918.388,VALID,0,VALID,55.2316,VALID,804.197,VALID,28.4158,VALID,10,VALID,0.244141,
2016-08-30, 18:13:04,VALID,918.385,VALID,0,VALID,54.6904,VALID,796.784,VALID,28.2009,VALID,298,VALID,0.0796875,
2016-08-30, 18:14:04,VALID,918.34,VALID,0,VALID,55.2926,VALID,517.974,VALID,28.0619,VALID,31,VALID,0.166016,
2016-08-30, 18:15:04,VALID,918.322,VALID,0,VALID,55.163,VALID,829.768,VALID,27.8882,VALID,63,VALID,0.0210938,
2016-08-30, 18:16:04,VALID,918.293,VALID,0,VALID,57.5644,VALID,829.231,VALID,27.8101,VALID,60,VALID,0,
2016-08-30, 18:17:04,VALID,918.256,VALID,0,VALID,58.0752,VALID,826.33,VALID,27.949,VALID,257,VALID,0.115234,
2016-08-30, 18:18:04,VALID,918.233,VALID,0,VALID,57.9837,VALID,799.04,VALID,28.0271,VALID,17,VALID,0.857422,
2016-08-30, 18:19:04,VALID,918.244,VALID,0,VALID,56.6801,VALID,717.922,VALID,28.0445,VALID,38,VALID,0,
2016-08-30, 18:20:04,VALID,918.192,VALID,0,VALID,58.5402,VALID,699.979,VALID,28.0836,VALID,272,VALID,0,
2016-08-30, 18:21:04,VALID,918.202,VALID,0,VALID,59.2492,VALID,811.61,VALID,28.1032,VALID,38,VALID,0.458203,
2016-08-30, 18:22:04,VALID,918.205,VALID,0,VALID,57.6025,VALID,650.019,VALID,28.025,VALID,27,VALID,0.35,
2016-08-30, 18:23:04,VALID,918.178,VALID,0,VALID,61.46,VALID,685.152,VALID,27.771,VALID,19,VALID,0.700391,
2016-08-30, 18:24:04,VALID,918.224,VALID,0,VALID,60.9416,VALID,738.98,VALID,27.6754,VALID,349,VALID,0.0457031,